DW3142 Weather Reports


Display with metric or nautical units.
time (UTC)temp
F
wind
direction
speed
MPH
gust
MPH
rain 1hr
in
rain 24hr
in
rain mn
in
humidity
%
barometer
mb
20260507020012 56 322 2.0 5.0 0.17 0.33 0.33 93 1005.5
20260507014513 57 203 0.0 3.0 0.14 0.30 0.30 93 1005.5
20260507013014 58 211 2.0 9.0 0.10 0.26 0.26 92 1005.5
20260507011510 59 140 2.0 5.0 0.00 0.16 0.16 93 1004.9
20260507010010 59 149 2.0 6.0 0.00 0.16 0.16 93 1005.0
20260507004509 59 108 2.0 5.0 0.00 0.17 0.16 93 1004.9
20260507003009 59 113 3.0 6.0 0.00 0.17 0.16 93 1004.8
20260507001513 59 133 2.0 6.0 0.00 0.17 0.16 92 1004.8
20260507000008 59 107 3.0 6.0 0.00 0.17 0.16 92 1004.6
20260506234510 59 136 3.0 8.0 0.00 0.18 0.16 92 1004.5
20260506233011 59 116 2.0 5.0 0.00 0.18 0.16 92 1004.5
20260506231508 60 111 2.0 9.0 0.00 0.18 0.16 92 1004.6
20260506230017 60 121 3.0 7.0 0.00 0.18 0.16 92 1004.5
20260506224506 60 116 2.0 9.0 0.00 0.18 0.16 91 1004.5
20260506223004 60 129 4.0 10.0 0.00 0.18 0.16 91 1004.7
20260506221503 60 92 4.0 10.0 0.00 0.18 0.16 91 1004.7
20260506220005 60 159 4.0 12.0 0.00 0.18 0.16 91 1004.8
20260506214502 61 102 3.0 9.0 0.00 0.18 0.16 91 1004.7
20260506213001 61 97 4.0 12.0 0.00 0.18 0.16 91 1004.9
20260506211601 61 117 4.0 10.0 0.01 0.18 0.16 92 1004.9
20260506210106 61 128 3.0 10.0 0.02 0.18 0.16 92 1004.9
20260506204606 61 101 5.0 11.0 0.05 0.18 0.16 92 1005.0
20260506203057 61 107 4.0 13.0 0.06 0.18 0.16 92 1005.2
20260506201556 61 85 4.0 8.0 0.05 0.17 0.15 92 1005.3
20260506200055 61 93 3.0 7.0 0.04 0.16 0.14 92 1005.3
20260506194555 61 117 3.0 7.0 0.02 0.13 0.11 91 1005.6
20260506193053 61 111 1.0 6.0 0.02 0.12 0.10 92 1005.6
20260506191556 61 86 2.0 5.0 0.04 0.12 0.10 92 1005.4
20260506190049 61 99 1.0 4.0 0.05 0.11 0.09 92 1005.9
20260506184559 61 134 1.0 4.0 0.07 0.11 0.09 92 1006.2
20260506183046 61 157 1.0 3.0 0.08 0.10 0.08 92 1006.6
20260506181546 61 157 1.0 3.0 0.06 0.08 0.06 91 1006.6
20260506180045 61 135 1.0 6.0 0.04 0.06 0.04 89 1006.8
20260506174544 62 156 2.0 9.0 0.02 0.04 0.02 85 1006.9
20260506173048 64 177 4.0 17.0 0.00 0.02 0.00 78 1006.8
20260506171556 67 144 3.0 13.0 0.00 0.02 0.00 73 1006.5
20260506170047 67 109 3.0 8.0 0.00 0.02 0.00 70 1006.4
20260506164545 67 132 3.0 11.0 0.00 0.02 0.00 70 1006.5
20260506163041 68 132 3.0 9.0 0.00 0.02 0.00 69 1006.6
20260506161542 67 102 2.0 5.0 0.00 0.02 0.00 71 1006.8
20260506160044 67 120 2.0 7.0 0.00 0.02 0.00 75 1007.3
20260506154534 67 116 2.0 7.0 0.00 0.02 0.00 71 1007.7
20260506153032 67 127 3.0 10.0 0.00 0.02 0.00 72 1007.9
20260506151539 66 95 3.0 9.0 0.00 0.02 0.00 72 1008.1
20260506150032 66 115 3.0 7.0 0.00 0.02 0.00 73 1008.0
20260506144531 66 101 5.0 9.0 0.00 0.02 0.00 71 1008.2
20260506143031 67 95 4.0 12.0 0.00 0.02 0.00 74 1007.8
20260506141527 65 119 3.0 9.0 0.00 0.02 0.00 75 1007.9
20260506140030 64 134 1.0 4.0 0.00 0.02 0.00 79 1007.8
20260506134520 63 126 1.0 4.0 0.00 0.02 0.00 79 1008.0
20260506133026 62 144 1.0 4.0 0.00 0.02 0.00 79 1008.3
20260506131516 62 126 2.0 8.0 0.00 0.02 0.00 80 1008.4
20260506130012 62 149 2.0 6.0 0.00 0.02 0.00 80 1008.5
20260506124511 62 128 2.0 8.0 0.00 0.02 0.00 80 1008.5
20260506123009 61 94 3.0 8.0 0.00 0.02 0.00 81 1008.4
20260506121508 61 72 3.0 7.0 0.00 0.02 0.00 80 1008.4
20260506120007 61 118 3.0 7.0 0.00 0.02 0.00 80 1008.6
20260506114522 60 128 3.0 9.0 0.00 0.02 0.00 80 1008.7
20260506113005 60 130 2.0 6.0 0.00 0.02 0.00 81 1008.9
20260506111504 60 112 2.0 6.0 0.00 0.02 0.00 81 1008.8
20260506110001 59 120 2.0 7.0 0.00 0.02 0.00 82 1008.9
20260506104607 58 153 0.0 5.0 0.00 0.02 0.00 83 1009.2
20260506103058 57 107 1.0 3.0 0.00 0.02 0.00 83 1008.9
20260506101555 57 86 1.0 6.0 0.00 0.02 0.00 83 1008.7
20260506100104 57 101 1.0 5.0 0.00 0.02 0.00 83 1008.8
20260506094550 56 117 1.0 2.0 0.00 0.02 0.00 84 1008.7
20260506093048 55 117 2.0 3.0 0.00 0.02 0.00 85 1008.6
20260506091552 53 117 0.0 2.0 0.00 0.02 0.00 87 1008.6
20260506090045 53 117 0.0 2.0 0.00 0.02 0.00 88 1008.6
20260506084545 53 117 0.0 2.0 0.00 0.02 0.00 90 1008.7
20260506083044 53 117 1.0 2.0 0.00 0.02 0.00 90 1008.8
20260506081544 54 117 0.0 2.0 0.00 0.02 0.00 89 1008.8
20260506073035 56 117 0.0 0.0 0.00 0.02 0.00 81 1008.7
20260506071532 58 117 0.0 0.0 0.00 0.02 0.00 76 1008.7
20260506061529 58 117 0.0 0.0 0.00 0.02 0.00 79 1008.3
20260506044527 61 111 2.0 4.0 0.00 0.02 0.00 74 1008.5
20260506043016 61 111 2.0 4.0 0.00 0.02 0.00 75 1008.6
20260506041515 61 95 2.0 4.0 0.00 0.02 0.00 76 1008.5
20260506040011 61 94 1.0 3.0 0.00 0.02 0.00 80 1008.5
20260506034510 62 94 1.0 3.0 0.00 0.02 0.02 78 1008.3
20260506033012 62 97 0.0 3.0 0.00 0.02 0.02 79 1008.3
20260506031519 62 96 0.0 2.0 0.00 0.02 0.02 78 1008.3
20260506030024 61 96 2.0 3.0 0.00 0.02 0.02 82 1008.3
20260506024520 60 96 0.0 2.0 0.00 0.02 0.02 85 1008.2
20260506023009 60 96 0.0 1.0 0.00 0.02 0.02 88 1008.1
20260506021509 60 96 0.0 4.0 0.00 0.02 0.02 88 1008.1